Location: Bergnershof
(48.9468°N, 10.9431°E)
Time: 03:48:55
(UTC+00:00)

APEX - Pass Details

Date: 03 March 2021
Orbit: 332 x 1081 km, 69.9° (Epoch: 11 April)

Event Time Altitude Azimuth Distance (km) Brightness Sun altitude
Rises 17:45:44 0° 323° (NW) 2,239 7.0 -7.8°
Reaches altitude 10° 17:47:54 10° 313° (NW) 1,327 6.0 -8.2°
Maximum altitude 17:50:29 32° 247° (WSW) 607 4.3 -8.6°
Drops below altitude 10° 17:52:57 10° 181° (S) 1,265 5.2 -9.0°
Sets 17:54:58 0° 170° (S) 2,111 6.2 -9.3°
